DELTA 1 DEB

基本信息
目录编号:
7153
目录名称:
DELTA 1 DEB
国际标识:
1973-086DT
轨道中心:
EARTH
物体状态:
在轨
发射日期:
1973-11-06 UTC
轨道信息
数据来源: 国际轨道数据
星历时间: 2026-09-12T02:23:40+0800
半长轴: 7901.583km
偏心率: 0.0035892
轨道倾角: 102.164°
近地点辐角: 345.527°
升交点赤经: 220.529°
平近点角: 82.908°
近地点: 1495.085km
远地点: 1551.807km
周期: 116.501分钟
每日圈数: 12.360376
详细信息
发射场:
AFWTR
轨道高度:
LEO
数据来源:
AOE Integration Group
参考系:
TEME
时间系统:
UTC
历元类型:
SGP4
2D轨道图
3D轨道图
轨道高度分析图
轨道倾角分析图
轨道综合分析图
查看轨道综合分析图